"Time","Temp","Dewpoint","Humidity","Pressure","Direction","Speed","Gust","Precip","PrecipRate"
"00:04:56","39.1","29.1","67","30.36","15","1.8","7","0.00","0.00"
"00:09:58","38.9","28.9","67","30.36","40","3.1","11","0.00","0.00"
"00:14:58","38.8","28.8","67","30.36","4","1.9","10.4","0.00","0.00"
"00:19:56","38.7","28.7","67","30.35","346","2.1","10","0.00","0.00"
"00:24:58","38.6","28.6","67","30.35","355","3.1","12","0.00","0.00"
"00:29:56","38.4","28.4","67","30.35","344","5.6","13.8","0.00","0.00"
"00:34:57","38.4","28.7","67.8","30.33","339","5.5","14","0.00","0.00"
"00:39:56","38.3","28.3","67","30.33","343","5.8","13","0.00","0.00"
"00:44:59","38.2","28.1","66.8","30.33","347","7.7","16.1","0.00","0.00"
"00:49:57","38.1","28.1","67","30.33","339","4.6","14","0.00","0.00"
"00:54:59","38","28","67","30.33","5","2.9","10.4","0.00","0.00"
"00:59:57","37.8","27.8","67","30.34","358","2.3","8.1","0.00","0.00"
"01:04:58","37.6","27.8","67.5","30.34","348","3","6","0.00","0.00"
"01:09:56","37.4","27.6","67.3","30.34","341","5.6","13","0.00","0.00"
"01:14:58","37.3","27.3","67","30.34","5","3.5","11.5","0.00","0.00"
"01:19:56","37.2","27.2","67","30.34","350","4.3","12","0.00","0.00"
"01:24:58","37.1","27.2","67","30.34","357","2","9","0.00","0.00"
"01:29:56","37","27.1","67","30.35","332","2.4","9.2","0.00","0.00"
"01:34:58","36.9","27","67","30.35","354","2.4","8","0.00","0.00"
"01:39:59","36.8","26.9","67","30.35","329","4.4","11.5","0.00","0.00"
"01:44:57","36.8","27.1","67.5","30.35","331","3.4","13","0.00","0.00"
"01:49:59","36.8","27.1","67.8","30.35","331","2.2","5","0.00","0.00"
"01:54:57","36.7","27","67.8","30.35","323","2.4","5","0.00","0.00"
"01:59:59","36.6","27","67.8","30.35","351","2.5","6","0.00","0.00"
"02:04:56","36.6","26.8","67.5","30.34","4","2.5","7","0.00","0.00"
"02:09:58","36.5","26.6","67","30.34","348","4","8.1","0.00","0.00"
"02:14:56","36.4","26.3","66.5","30.35","351","3.3","10.4","0.00","0.00"
"02:19:58","36.4","26.3","66.5","30.35","354","3.2","9.2","0.00","0.00"
"02:24:56","36.3","26.3","66.7","30.35","351","3.5","10.4","0.00","0.00"
"02:29:57","36.2","25.9","66","30.35","58","2.7","9.2","0.00","0.00"
"02:34:59","36.1","26","66.4","30.35","4","1.9","5","0.00","0.00"
"02:39:58","36","26.1","67","30.35","340","3.2","9.2","0.00","0.00"
"02:44:56","35.9","26","67","30.35","351","2.6","7","0.00","0.00"
"02:49:58","35.8","25.9","67","30.34","323","1.9","6","0.00","0.00"
"02:54:56","35.7","25.8","67","30.34","269","1","3.5","0.00","0.00"
"02:59:58","35.6","25.7","67","30.34","342","2.3","7","0.00","0.00"
"03:04:56","35.5","25.6","67","30.33","332","2.4","12","0.00","0.00"
"03:09:57","35.4","25.5","67","30.33","352","3.5","11.5","0.00","0.00"
"03:14:56","35.4","25.5","67","30.35","331","2.6","6","0.00","0.00"
"03:19:58","35.3","25.4","67","30.35","341","2.7","7","0.00","0.00"
"03:24:56","35.2","25.3","67","30.35","327","2.3","6","0.00","0.00"
"03:29:58","35.1","25.2","67","30.35","331","1.7","4","0.00","0.00"
"03:34:56","35.1","25.2","67","30.35","334","2.1","4.6","0.00","0.00"
"03:39:59","35.1","25.2","67","30.35","340","1.9","5","0.00","0.00"
"03:44:57","35.1","25.2","67","30.35","343","1.7","4","0.00","0.00"
"03:49:59","35.1","25.4","67.5","30.35","340","0.9","3.5","0.00","0.00"
"03:54:58","35","25.1","67","30.35","343","1.3","4","0.00","0.00"
"03:59:56","35","25.3","67.5","30.35","343","0.6","2.3","0.00","0.00"
"04:04:57","35","25.3","67.4","30.34","342","0.6","3.5","0.00","0.00"
"04:09:56","35","25.1","67","30.34","348","1.5","6","0.00","0.00"
"04:14:58","35","25.1","67","30.35","337","2.4","10.4","0.00","0.00"
"04:19:56","34.9","25","67","30.35","334","2","4","0.00","0.00"
"04:24:58","34.8","25.2","67.8","30.35","341","2.3","6","0.00","0.00"
"04:29:56","34.8","25.2","67.8","30.35","340","1.5","5.8","0.00","0.00"
"04:34:58","34.7","25.1","67.7","30.35","327","2.4","7","0.00","0.00"
"04:39:57","34.8","25.3","68","30.35","336","2.2","10","0.00","0.00"
"04:44:59","34.9","25.3","67.8","30.36","334","2.4","10.4","0.00","0.00"
"04:49:57","35","25.3","67.4","30.36","324","1.7","5","0.00","0.00"
"04:54:59","35.1","25.3","67.4","30.36","347","1.4","5","0.00","0.00"
"04:59:57","35.1","25.3","67.3","30.36","338","1.4","4","0.00","0.00"
"05:04:58","35.1","25.2","67","30.35","340","1.6","4","0.00","0.00"
"05:09:56","35.1","25.2","67","30.35","334","2.3","10","0.00","0.00"
"05:14:58","35.1","25.2","67","30.37","333","2.5","10.4","0.00","0.00"
"05:19:56","35.2","25.3","67","30.37","339","2.2","7","0.00","0.00"
"05:24:58","35.2","25.3","66.9","30.37","338","2.2","7","0.00","0.00"
"05:29:56","35.2","25.1","66.3","30.38","307","1.4","6.9","0.00","0.00"
"05:34:59","35.2","25.3","66.9","30.38","324","1.4","4","0.00","0.00"
"05:39:58","35.2","25.1","66.2","30.38","328","1.2","3.5","0.00","0.00"
"05:44:59","35.3","25.3","66.7","30.40","336","1.2","4","0.00","0.00"
"05:49:58","35.3","25.3","66.8","30.40","341","1","3.5","0.00","0.00"
"05:54:56","35.3","25.4","67","30.40","340","1.8","5","0.00","0.00"
"05:59:58","35.4","25.3","66.5","30.42","346","1.5","5","0.00","0.00"
"06:04:43","35.4","25.2","66","30.42","343","1.1","3.5","0.00","0.00"
"06:09:59","35.4","25.2","66","30.42","344","0.2","3.5","0.00","0.00"
"06:14:57","35.4","25.1","65.9","30.42","338","1.6","5","0.00","0.00"
"06:19:59","35.4","25.1","65.7","30.41","327","1.1","4","0.00","0.00"
"06:24:57","35.4","25.2","66","30.41","327","1.4","4","0.00","0.00"
"06:29:55","35.4","25.2","66","30.41","338","1.9","7","0.00","0.00"
"06:34:58","35.4","25.2","66","30.41","337","1.8","5","0.00","0.00"
"06:39:57","35.4","24.9","65.3","30.41","4","1.3","5","0.00","0.00"
"06:44:59","35.3","24.7","65","30.42","339","1.6","4","0.00","0.00"
"06:49:57","35.3","24.5","64.5","30.42","359","1.3","5","0.00","0.00"
"06:54:56","35.2","24.6","64.9","30.42","329","1.6","6","0.00","0.00"
"06:59:58","35.2","24.4","64.6","30.42","5","1.3","5","0.00","0.00"
"07:04:59","35.2","24.3","64.2","30.42","336","1.7","5","0.00","0.00"
"07:09:57","35.2","24.2","64","30.42","330","2.2","5","0.00","0.00"
"07:14:55","35.2","24.3","64.4","30.42","356","1.6","3.5","0.00","0.00"
"07:19:58","35.1","24.1","64","30.42","32","0.8","3.5","0.00","0.00"
"07:24:59","35.1","24.2","64.2","30.42","346","1.7","5","0.00","0.00"
"07:29:57","35.1","24.4","64.7","30.42","338","2.6","5","0.00","0.00"
"07:34:59","35.1","24.5","64.9","30.42","342","2.2","7","0.00","0.00"
"07:39:57","35.2","24.5","64.8","30.42","344","1.9","5","0.00","0.00"
"07:44:59","35.3","24.7","65","30.44","340","1.3","5","0.00","0.00"
"07:49:57","35.4","24.8","65","30.44","337","0.7","3.5","0.00","0.00"
"07:54:59","35.5","25","65.2","30.44","337","1","3","0.00","0.00"
"07:59:57","35.6","25","64.8","30.44","343","1.4","5.8","0.00","0.00"
"08:04:57","35.7","24.8","64","30.44","332","1.5","5","0.00","0.00"
"08:09:59","35.9","24.7","63.6","30.44","359","2.2","6","0.00","0.00"
"08:14:57","35.9","24.6","63.2","30.44","62","2.4","6","0.00","0.00"
"08:19:59","35.9","24.5","63","30.43","62","2","4","0.00","0.00"
"08:24:56","35.9","24.2","62.3","30.43","337","2.1","10.4","0.00","0.00"
"08:29:58","35.8","24.1","62.1","30.47","328","1.5","5","0.00","0.00"
"08:34:56","35.7","24.5","63.4","30.47","328","1.9","5","0.00","0.00"
"08:39:58","35.6","24.9","64.8","30.47","329","0.8","3.5","0.00","0.00"
"08:44:58","35.5","25.4","66.2","30.47","333","0.9","3.5","0.00","0.00"
"08:49:56","35.4","26.2","68.8","30.46","36","1.7","5","0.00","0.00"
"08:54:58","35.1","26.8","71.5","30.46","47","0.8","4.6","0.00","0.00"
"08:59:56","34.9","27.3","73.7","30.46","52","1.1","3.5","0.01","0.01"
"09:04:57","34.6","27.6","75.6","30.44","28","1","5","0.01","0.01"
"09:09:58","34.3","28.3","78.4","30.44","333","2","5","0.02","0.01"
"09:14:57","34.1","28.3","79.1","30.45","322","0.2","2.3","0.02","0.02"
"09:19:59","33.9","28.4","80.1","30.45","322","0.4","2.3","0.02","0.02"
"09:24:57","33.8","28.4","80.5","30.45","322","0.3","2","0.02","0.02"
"09:29:59","33.7","28.4","80.9","30.45","322","0.5","2.3","0.02","0.02"
"09:34:57","33.6","28.7","81.9","30.44","322","0.5","2.3","0.02","0.02"
"09:39:59","33.6","29","82.9","30.44","327","1.2","4","0.02","0.02"
"09:44:57","33.6","28.8","82.6","30.46","329","1.1","3.5","0.03","0.03"
"09:49:59","33.5","29.1","83.5","30.46","298","1.7","4","0.03","0.03"
"09:54:57","33.5","29.1","83.6","30.46","304","1.1","4","0.04","0.04"
"09:59:14","33.5","29.4","84.6","30.46","304","0.4","2.3","0.04","0.04"
"10:04:56","33.5","29.5","85","30.46","313","1.4","4","0.04","0.03"
"10:09:59","33.4","29.4","84.8","30.46","319","2.1","4","0.04","0.03"
"10:14:57","33.3","29","84.3","30.46","344","2.2","5","0.05","0.03"
"10:19:59","33.1","29.1","85.1","30.46","342","1.4","4","0.05","0.03"
"10:24:56","33","29.3","86","30.46","336","1.8","4","0.06","0.04"
"10:29:58","33","29.6","86.9","30.46","341","1.1","3.5","0.06","0.04"
"10:34:56","33","29.6","87","30.46","345","0.8","3.5","0.07","0.05"
"10:39:59","33","29.7","87.3","30.46","344","1.8","5","0.07","0.05"
"10:44:56","33","29.8","88","30.47","343","2","5","0.07","0.05"
"10:49:58","33.1","30","88.3","30.47","343","1.8","4","0.08","0.05"
"10:54:56","33.2","30.3","89","30.47","342","2.1","5","0.08","0.05"
"10:59:58","33.2","30.2","88.6","30.47","344","1.4","3.5","0.08","0.04"
"11:04:59","33.1","30.1","88.4","30.47","343","0.5","2.3","0.08","0.04"
"11:09:57","33.2","30.4","89.2","30.47","343","0.7","3.5","0.09","0.05"
"11:14:59","33.2","30.3","89","30.47","343","1.5","6","0.09","0.05"
"11:19:57","33.2","30.5","89.7","30.47","344","1.6","5.8","0.09","0.04"
"11:24:59","33.2","30.3","89.1","30.47","344","0.7","3","0.10","0.05"
"11:29:57","33.1","30.5","90","30.48","350","2.5","6","0.10","0.04"
"11:34:59","33","30.4","89.8","30.48","348","1.6","4","0.10","0.04"
"11:39:57","33","30.4","90","30.48","347","1.1","3.5","0.10","0.03"
"11:44:59","33","30.4","90.2","30.48","344","1.9","4","0.11","0.04"
"11:49:57","32.9","30.5","90.5","30.48","343","1.3","4","0.11","0.04"
"11:54:59","33","30.7","91","30.48","343","1","3.5","0.12","0.04"
"11:59:57","33","30.7","91","30.48","340","1","5","0.12","0.04"
"12:04:58","33","30.7","91","30.47","343","2.5","7","0.12","0.04"
"12:09:56","32.9","30.6","91","30.47","343","1","3.5","0.12","0.04"
"12:14:58","32.9","30.6","91","30.47","354","1.2","4","0.13","0.04"
"12:19:56","32.8","30.5","91","30.47","336","1.4","4","0.13","0.04"
"12:24:58","32.9","30.8","91.8","30.47","331","0.9","3.5","0.13","0.04"
"12:29:59","33","30.9","92","30.47","335","1.2","4","0.13","0.03"
"12:34:57","33","30.9","92","30.47","332","1.2","4","0.13","0.03"
"12:39:56","33","30.9","92","30.47","1","1.5","3.5","0.14","0.03"
"12:44:57","32.9","30.8","91.8","30.47","353","1.3","4","0.14","0.04"
"12:49:59","33","30.9","92","30.46","336","1.7","4","0.14","0.03"
"12:54:59","32.9","30.8","92","30.46","341","2.5","9.2","0.14","0.03"
"12:59:57","32.9","30.8","92","30.46","332","1.9","7","0.15","0.03"
"13:04:58","32.8","30.7","92","30.46","330","1.2","6.9","0.15","0.03"
"13:09:56","32.8","30.7","92","30.46","340","1.4","7","0.15","0.03"
"13:14:58","32.8","30.8","92.2","30.46","341","0.9","4","0.16","0.04"
"13:19:56","32.9","31","92.8","30.45","342","0.6","3.5","0.16","0.03"
"13:24:58","32.9","31","92.6","30.45","354","1.6","4","0.16","0.03"
